TimeCST,TemperatureF,Dew PointF,Humidity,Sea Level PressureIn,VisibilityMPH,Wind Direction,Wind SpeedMPH,Gust SpeedMPH,PrecipitationIn,Events,Conditions,WindDirDegrees,DateUTC
12:53 AM,15.1,10.9,84,30.37,10.0,Calm,Calm,-,N/A,,Clear,0,2012-11-28 06:53:00
1:53 AM,15.1,12.0,88,30.35,10.0,West,3.5,-,N/A,,Clear,260,2012-11-28 07:53:00
2:53 AM,14.0,10.9,88,30.35,10.0,Calm,Calm,-,N/A,,Clear,0,2012-11-28 08:53:00
3:53 AM,14.0,10.0,84,30.34,10.0,Calm,Calm,-,N/A,,Clear,0,2012-11-28 09:53:00
4:53 AM,12.0,8.1,84,30.35,10.0,Calm,Calm,-,N/A,,Clear,0,2012-11-28 10:53:00
5:53 AM,10.9,9.0,92,30.37,10.0,Calm,Calm,-,N/A,,Clear,0,2012-11-28 11:53:00
6:53 AM,10.9,8.1,88,30.39,10.0,WNW,4.6,-,N/A,,Clear,300,2012-11-28 12:53:00
7:53 AM,12.0,8.1,84,30.39,10.0,NW,3.5,-,N/A,,Clear,310,2012-11-28 13:53:00
8:53 AM,17.1,12.9,84,30.40,10.0,NW,3.5,-,N/A,,Clear,320,2012-11-28 14:53:00
9:53 AM,24.1,18.0,77,30.38,10.0,Calm,Calm,-,N/A,,Clear,0,2012-11-28 15:53:00
10:53 AM,37.0,23.0,57,30.35,10.0,SW,12.7,-,N/A,,Clear,220,2012-11-28 16:53:00
11:53 AM,43.0,24.1,47,30.30,10.0,SSW,11.5,-,N/A,,Clear,200,2012-11-28 17:53:00
12:53 PM,46.9,26.1,44,30.24,10.0,SSW,16.1,-,N/A,,Clear,210,2012-11-28 18:53:00
1:53 PM,50.0,26.1,39,30.18,10.0,South,11.5,-,N/A,,Clear,190,2012-11-28 19:53:00
2:53 PM,50.0,26.1,39,30.15,10.0,SSW,13.8,-,N/A,,Clear,200,2012-11-28 20:53:00
3:53 PM,48.9,26.1,41,30.13,10.0,South,9.2,-,N/A,,Clear,190,2012-11-28 21:53:00
4:53 PM,45.0,26.1,48,30.13,10.0,SE,3.5,-,N/A,,Clear,140,2012-11-28 22:53:00
5:53 PM,39.0,24.1,55,30.16,10.0,Calm,Calm,-,N/A,,Clear,0,2012-11-28 23:53:00
6:53 PM,37.0,24.1,59,30.15,10.0,SSE,5.8,-,N/A,,Clear,160,2012-11-29 00:53:00
7:53 PM,34.0,24.1,67,30.15,10.0,Calm,Calm,-,N/A,,Clear,0,2012-11-29 01:53:00
8:53 PM,30.9,23.0,72,30.13,10.0,Calm,Calm,-,N/A,,Clear,0,2012-11-29 02:53:00
9:53 PM,33.1,23.0,66,30.10,10.0,South,3.5,-,N/A,,Clear,170,2012-11-29 03:53:00
10:53 PM,28.0,19.9,72,30.09,10.0,Calm,Calm,-,N/A,,Clear,0,2012-11-29 04:53:00
11:53 PM,21.9,18.0,85,30.08,10.0,West,3.5,-,N/A,,Clear,270,2012-11-29 05:53:00